sat.trackr.live / text

‹ back to catalog

O3B FM18

NORAD 44115 · 2019-020D

PAYLOAD ACTIVE UNKNOWN

§ Identity

Operator
Country
O3B
Launch date
2019-04-04
Launch site
FRGUI
Launch vehicle
Mass (kg)
RCS (m²)

Purposes: comms

External: N2YO · Heavens-Above · Gunter

§ Orbital elements

Epoch: 2026-05-25T01:52:36.504192Z

Period
287.93 min
Inclination
0.0530°
Eccentricity
0.0002765
Mean motion
5.00115354 rev/d
Perigee alt
8,061.9 km
Apogee alt
8,069.9 km
Semi-major
14,444.0 km
B*
0.0000e+0
RAAN
0.0660°
Arg perigee
63.9912°
Mean anomaly
295.9707°
Rev number
13,048

§ Raw data

O3B FM181 44115U 19020D   26145.07820028 -.00000024  00000+0  00000+0 0  99972 44115   0.0530   0.0660 0002765  63.9912 295.9707  5.00115354130486

JSON: /api/v1/satellites/44115 · /tle

For live sub-satellite position, see the globe view (requires WebGL).

§ Visibility from observer

Set your observer location to see the next 7 days of passes ≥ 10°. The values pass through the URL so the page stays shareable.

No JS? Fill the form by hand. The geolocation button needs JavaScript.